Back to catalog

STARLINK-31475

AliveCommunicationsVLEO
NORAD 59310·PAYLOAD·🇺🇸 United States

Launched Mar 24, 2024 from Cape Canaveral Space Force Station

Loading…

Next Passes (next 24 hours)

TLE

FreshSource: CelesTrak SupGP

Epoch: Sep 14, 2026, 15:16 UTC

1 59310C 24056Q   26257.63659722 -.00033441  00000+0 -12114-2 0  2571
2 59310  43.0023 240.4176 0001329 270.1189 266.2099 15.27590428    17

Track STARLINK-31475 in real time with AllMySat

Download on the App Store